Overview Statistics Trail Chart Weather Telemetry Raw packets
 

This is the latest recevied weather packets stored in our database for station/object N5JXS. If no packets are shown the sender has not sent any weather packets the latest 10 day(s).

<< 79 80 81 82 83 84 85 >>
Time Temp. Humidity Pressure Rain* Wind** Luminosity Snow
1788049181 23.89° C 37% 1024.8 hPa 0 mm - 35 W/m² -
1788048876 23.89° C 38% 1024.6 hPa 0 mm - 99 W/m² -
1788048571 23.33° C 38% 1024.8 hPa 0 mm - 50 W/m² -
1788048269 23.33° C 38% 1024.8 hPa 0 mm - 45 W/m² -
1788047966 22.78° C 40% 1024.7 hPa 0 mm - 117 W/m² -
1788047661 22.22° C 42% 1024.7 hPa 0 mm - 64 W/m² -
1788047360 22.22° C 42% 1025.1 hPa 0 mm - 134 W/m² -
1788047055 21.67° C 43% 1025.3 hPa 0 mm - 106 W/m² -
1788046749 20.56° C 44% 1025.5 hPa 0 mm - 137 W/m² -
1788046444 21.11° C 44% 1025.8 hPa 0 mm - 52 W/m² -
1788046142 21.11° C 42% 1025.6 hPa 0 mm - 52 W/m² -
1788045837 21.11° C 42% 1025.3 hPa 0 mm - 84 W/m² -
1788045532 21.11° C 41% 1025.8 hPa 0 mm - 88 W/m² -
1788045228 21.67° C 40% 1025.8 hPa 0 mm - 74 W/m² -
1788044923 21.67° C 38% 1026.3 hPa 0 mm - 73 W/m² -
1788044622 22.22° C 37% 1026.2 hPa 0 mm - 67 W/m² -
1788044321 22.78° C 36% 1026.5 hPa 0 mm - 39 W/m² -
1788044017 23.33° C 35% 1026.6 hPa 0 mm - 38 W/m² -
1788043713 23.89° C 35% 1026.7 hPa 0 mm - 30 W/m² -
1788043408 25° C 34% 1026.1 hPa 0 mm - 26 W/m² -
1788043107 25.56° C 35% 1025.8 hPa 0 mm - 31 W/m² -
1788042803 26.11° C 35% 1025.3 hPa 0 mm - 39 W/m² -
1788042501 26.11° C 33% 1025.1 hPa 0 mm - 45 W/m² -
1788042197 26.67° C 32% 1025.2 hPa 0 mm - 58 W/m² -
1788041893 26.67° C 31% 1025.1 hPa 0 mm - 94 W/m² -

* Rain latest hour (hover to see other rain measurements)
** Current wind speed in m/s (hover to see current wind gust speed)